This is the latest recevied weather packets stored in our database for station/object WD8INF-9. If no packets are shown the sender has not sent any weather packets the latest 1 day(s).
| Time | Temp. | Humidity | Pressure | Rain* | Wind** | Luminosity | Snow |
|---|---|---|---|---|---|---|---|
| 1778009059 | 21.11° C | - | 1006.3 hPa | 0 mm | 0 m/s | - | - |
| 1778008758 | 21.11° C | - | 1005.9 hPa | 0 mm | 0.45 m/s, 207° | - | - |
| 1778008458 | 21.67° C | - | 1006.2 hPa | 0 mm | 0.89 m/s, 252° | - | - |
| 1778008158 | 21.11° C | - | 1006.4 hPa | 0 mm | 0.45 m/s, 253° | - | - |
| 1778007858 | 21.67° C | - | 1006.3 hPa | 0 mm | 0.45 m/s, 260° | - | - |
| 1778007557 | 21.11° C | - | 1006.5 hPa | 0 mm | 0.45 m/s, 200° | - | - |
| 1778007257 | 21.11° C | - | 1006.3 hPa | 0 mm | 0.45 m/s, 215° | - | - |
| 1778006956 | 21.11° C | - | 1006.5 hPa | 0 mm | 0.45 m/s, 191° | - | - |
| 1778006656 | 21.11° C | - | 1006.3 hPa | 0 mm | 0 m/s | - | - |
| 1778006355 | 21.11° C | - | 1006.2 hPa | 0 mm | 0 m/s | - | - |
| 1778005755 | 21.11° C | - | 1007.1 hPa | 0 mm | 0.45 m/s, 191° | - | - |
| 1778005154 | 20.56° C | - | 1007.1 hPa | 0 mm | 0 m/s | - | - |
| 1778004854 | 21.11° C | - | 1007 hPa | 0 mm | 0.45 m/s, 197° | - | - |
| 1778004554 | 21.11° C | - | 1007.1 hPa | 0 mm | 0.45 m/s, 194° | - | - |
| 1778004254 | 21.11° C | - | 1006.9 hPa | 0 mm | 0.45 m/s, 229° | - | - |
| 1778003953 | 20.56° C | - | 1007.2 hPa | 0 mm | 0.45 m/s, 195° | - | - |
| 1778003653 | 20.56° C | - | 1007 hPa | 0 mm | 0.45 m/s, 246° | - | - |
| 1778003353 | 20.56° C | - | 1007.2 hPa | 0 mm | 0.45 m/s, 271° | - | - |
| 1778003053 | 21.11° C | - | 1007.1 hPa | 0 mm | 0.45 m/s, 203° | - | - |
| 1778002752 | 20.56° C | - | 1007 hPa | 0 mm | 0.45 m/s, 186° | - | - |
| 1778002452 | 20.56° C | - | 1007.5 hPa | 0 mm | 0.45 m/s, 246° | - | - |
| 1778002152 | 20.56° C | - | 1007.3 hPa | 0 mm | 0.45 m/s, 198° | - | - |
| 1778001852 | 20.56° C | - | 1007.6 hPa | 0 mm | 0.45 m/s, 249° | - | - |
| 1778001551 | 20.56° C | - | 1007.3 hPa | 0 mm | 0.45 m/s, 217° | - | - |
| 1778001251 | 20.56° C | - | 1007.2 hPa | 0 mm | 0.89 m/s, 193° | - | - |
* Rain since midnight (hover to see other rain measurements)
** Current wind speed in m/s (hover to see current wind gust speed)